| time (UTC) | temp C | wind direction | speed KPH | gust KPH | rain 1hr cm | rain 24hr cm | rain mn cm | humidity % | barometer mb |
| 20260504044017 | 10 | 0.0 | 0.0 | 0.00 | 0.00 | 0.00 | 48 | 1012.4 | |
| 20260504043516 | 10 | 0.0 | 0.0 | 0.00 | 0.00 | 0.00 | 47 | 1012.4 | |
| 20260504043018 | 10 | 0.0 | 0.0 | 0.00 | 0.00 | 0.00 | 46 | 1012.3 | |
| 20260504042517 | 10 | 0.0 | 0.0 | 0.00 | 0.00 | 0.00 | 46 | 1012.2 | |
| 20260504042017 | 10 | 0.0 | 0.0 | 0.00 | 0.00 | 0.00 | 46 | 1012.1 | |
| 20260504041516 | 10 | 0.0 | 0.0 | 0.00 | 0.00 | 0.00 | 46 | 1012.1 | |
| 20260504041016 | 10 | 0.0 | 0.0 | 0.00 | 0.00 | 0.00 | 46 | 1012.1 | |
| 20260504040517 | 10 | 0.0 | 0.0 | 0.00 | 0.00 | 0.00 | 46 | 1012.0 | |
| 20260504040016 | 10 | 0.0 | 0.0 | 0.00 | 0.00 | 0.00 | 46 | 1012.0 | |
| 20260504035515 | 11 | 0.0 | 0.0 | 0.00 | 0.00 | 0.00 | 46 | 1012.0 | |
| 20260504035015 | 11 | 0.0 | 0.0 | 0.00 | 0.00 | 0.00 | 45 | 1012.0 | |
| 20260504034515 | 11 | 0.0 | 0.0 | 0.00 | 0.00 | 0.00 | 45 | 1012.0 | |
| 20260504034015 | 11 | 0.0 | 0.0 | 0.00 | 0.00 | 0.00 | 45 | 1012.0 | |
| 20260504033515 | 11 | 0.0 | 0.0 | 0.00 | 0.00 | 0.00 | 44 | 1012.0 | |
| 20260504033025 | 11 | 0.0 | 0.0 | 0.00 | 0.00 | 0.00 | 43 | 1012.0 | |
| 20260504032515 | 11 | 0.0 | 0.0 | 0.00 | 0.00 | 0.00 | 43 | 1012.0 | |
| 20260504032015 | 11 | 0.0 | 0.0 | 0.00 | 0.00 | 0.00 | 42 | 1012.0 | |
| 20260504031530 | 11 | 0.0 | 0.0 | 0.00 | 0.00 | 0.00 | 42 | 1012.0 | |
| 20260504031015 | 11 | 0.0 | 0.0 | 0.00 | 0.00 | 0.00 | 41 | 1011.9 | |
| 20260504030520 | 11 | 0.0 | 0.0 | 0.00 | 0.00 | 0.00 | 41 | 1011.9 | |
| 20260504030016 | 11 | 0.0 | 0.0 | 0.00 | 0.00 | 0.00 | 41 | 1012.0 | |
| 20260504025515 | 11 | 0.0 | 0.0 | 0.00 | 0.00 | 0.00 | 41 | 1011.9 | |
| 20260504025015 | 11 | 0.0 | 0.0 | 0.00 | 0.00 | 0.00 | 41 | 1011.9 | |
| 20260504024515 | 11 | 0.0 | 0.0 | 0.00 | 0.00 | 0.00 | 41 | 1011.9 | |
| 20260504024015 | 11 | 0.0 | 0.0 | 0.00 | 0.00 | 0.00 | 42 | 1012.0 | |
| 20260504023515 | 11 | 0.0 | 0.0 | 0.00 | 0.00 | 0.00 | 40 | 1011.9 | |
| 20260504023015 | 11 | 0.0 | 0.0 | 0.00 | 0.00 | 0.00 | 41 | 1011.9 | |
| 20260504022515 | 11 | 0.0 | 0.0 | 0.00 | 0.00 | 0.00 | 40 | 1011.9 | |
| 20260504022015 | 11 | 0.0 | 0.0 | 0.00 | 0.00 | 0.00 | 40 | 1011.9 | |
| 20260504021515 | 11 | 0.0 | 0.0 | 0.00 | 0.00 | 0.00 | 43 | 1011.9 | |
| 20260504021015 | 11 | 0.0 | 0.0 | 0.00 | 0.00 | 0.00 | 42 | 1011.9 | |
| 20260504020515 | 11 | 0.0 | 0.0 | 0.00 | 0.00 | 0.00 | 41 | 1012.0 | |
| 20260504020015 | 11 | 0.0 | 0.0 | 0.00 | 0.00 | 0.00 | 42 | 1011.9 | |
| 20260504015515 | 11 | 0.0 | 0.0 | 0.00 | 0.00 | 0.00 | 43 | 1011.9 | |
| 20260504015015 | 11 | 0.0 | 0.0 | 0.00 | 0.00 | 0.00 | 43 | 1011.8 | |
| 20260504014515 | 11 | 0.0 | 0.0 | 0.00 | 0.00 | 0.00 | 44 | 1011.8 | |
| 20260504014015 | 11 | 0.0 | 0.0 | 0.00 | 0.00 | 0.00 | 44 | 1011.7 | |
| 20260504013515 | 11 | 0.0 | 0.0 | 0.00 | 0.00 | 0.00 | 44 | 1011.8 | |
| 20260504013015 | 11 | 0.0 | 0.0 | 0.00 | 0.00 | 0.00 | 44 | 1011.6 | |
| 20260504012515 | 12 | 0.0 | 0.0 | 0.00 | 0.00 | 0.00 | 44 | 1011.6 | |
| 20260504012015 | 12 | 0.0 | 0.0 | 0.00 | 0.00 | 0.00 | 43 | 1011.6 | |
| 20260504011515 | 12 | 0.0 | 0.0 | 0.00 | 0.00 | 0.00 | 43 | 1011.6 | |
| 20260504011015 | 12 | 0.0 | 0.0 | 0.00 | 0.00 | 0.00 | 42 | 1011.5 | |
| 20260504010515 | 12 | 0.0 | 0.0 | 0.00 | 0.00 | 0.00 | 42 | 1011.4 | |
| 20260504010015 | 12 | 0.0 | 0.0 | 0.00 | 0.00 | 0.00 | 41 | 1011.4 | |
| 20260504005517 | 12 | 0.0 | 0.0 | 0.00 | 0.00 | 0.00 | 39 | 1011.4 | |
| 20260504005017 | 13 | 0.0 | 0.0 | 0.00 | 0.00 | 0.00 | 40 | 1011.2 | |
| 20260504004517 | 13 | 0.0 | 0.0 | 0.00 | 0.00 | 0.00 | 39 | 1011.2 | |
| 20260504004017 | 13 | 0.0 | 0.0 | 0.00 | 0.00 | 0.00 | 37 | 1011.2 | |
| 20260504003517 | 13 | 0.0 | 0.0 | 0.00 | 0.00 | 0.00 | 37 | 1011.1 | |
| 20260504003017 | 14 | 0.0 | 0.0 | 0.00 | 0.00 | 0.00 | 35 | 1011.0 | |
| 20260504002517 | 14 | 0.0 | 0.0 | 0.00 | 0.00 | 0.00 | 34 | 1011.0 | |
| 20260504002017 | 14 | 0.0 | 0.0 | 0.00 | 0.00 | 0.00 | 34 | 1010.9 | |
| 20260504001517 | 15 | 0.0 | 0.0 | 0.00 | 0.00 | 0.00 | 31 | 1010.8 | |
| 20260504001032 | 15 | 0.0 | 0.0 | 0.00 | 0.00 | 0.00 | 30 | 1010.7 | |
| 20260504000517 | 15 | 0.0 | 0.0 | 0.00 | 0.00 | 0.00 | 31 | 1010.6 | |
| 20260504000017 | 15 | 0.0 | 0.0 | 0.00 | 0.00 | 0.00 | 29 | 1010.6 | |
| 20260503235517 | 15 | 0.0 | 3.2 | 0.00 | 0.00 | 0.00 | 29 | 1010.5 | |
| 20260503235017 | 15 | 0.0 | 1.6 | 0.00 | 0.00 | 0.00 | 29 | 1010.5 | |
| 20260503234517 | 15 | 0.0 | 3.2 | 0.00 | 0.00 | 0.00 | 28 | 1010.4 | |
| 20260503234017 | 15 | 292 | 1.6 | 4.8 | 0.00 | 0.00 | 0.00 | 29 | 1010.4 |
| 20260503233517 | 15 | 0.0 | 3.2 | 0.00 | 0.00 | 0.00 | 28 | 1010.2 | |
| 20260503233016 | 16 | 0.0 | 3.2 | 0.00 | 0.00 | 0.00 | 29 | 1010.2 | |
| 20260503232516 | 16 | 292 | 1.6 | 6.4 | 0.00 | 0.00 | 0.00 | 30 | 1010.2 |
| 20260503232017 | 16 | 315 | 1.6 | 6.4 | 0.00 | 0.00 | 0.00 | 31 | 1010.2 |
| 20260503231516 | 16 | 292 | 3.2 | 6.4 | 0.00 | 0.00 | 0.00 | 26 | 1010.1 |
| 20260503231016 | 16 | 292 | 1.6 | 6.4 | 0.00 | 0.00 | 0.00 | 26 | 1010.2 |
| 20260503230516 | 16 | 292 | 3.2 | 4.8 | 0.00 | 0.00 | 0.00 | 25 | 1010.1 |
| 20260503230016 | 16 | 292 | 1.6 | 8.0 | 0.00 | 0.00 | 0.00 | 27 | 1010.0 |
| 20260503225517 | 16 | 0.0 | 3.2 | 0.00 | 0.00 | 0.00 | 28 | 1010.0 | |
| 20260503225016 | 16 | 292 | 3.2 | 8.0 | 0.00 | 0.00 | 0.00 | 26 | 1009.9 |
| 20260503224516 | 16 | 315 | 3.2 | 11.3 | 0.00 | 0.00 | 0.00 | 25 | 1009.9 |
| 20260503224016 | 16 | 292 | 1.6 | 4.8 | 0.00 | 0.00 | 0.00 | 26 | 1009.8 |
| 20260503223517 | 16 | 315 | 1.6 | 4.8 | 0.00 | 0.00 | 0.00 | 27 | 1009.8 |
| 20260503223016 | 16 | 270 | 3.2 | 9.7 | 0.00 | 0.00 | 0.00 | 25 | 1009.8 |
| 20260503222517 | 16 | 270 | 1.6 | 6.4 | 0.00 | 0.00 | 0.00 | 25 | 1009.8 |
| 20260503222017 | 16 | 292 | 3.2 | 11.3 | 0.00 | 0.00 | 0.00 | 26 | 1009.9 |
| 20260503221516 | 16 | 270 | 4.8 | 9.7 | 0.00 | 0.00 | 0.00 | 25 | 1009.9 |
| 20260503221017 | 16 | 292 | 4.8 | 12.9 | 0.00 | 0.00 | 0.00 | 24 | 1010.0 |
| 20260503220516 | 16 | 292 | 1.6 | 6.4 | 0.00 | 0.00 | 0.00 | 25 | 1009.9 |
| 20260503220017 | 16 | 270 | 3.2 | 9.7 | 0.00 | 0.00 | 0.00 | 26 | 1009.8 |
| 20260503215516 | 16 | 292 | 3.2 | 8.0 | 0.00 | 0.00 | 0.00 | 25 | 1009.9 |
| 20260503215016 | 16 | 292 | 3.2 | 16.1 | 0.00 | 0.00 | 0.00 | 25 | 1010.0 |
| 20260503214516 | 16 | 270 | 4.8 | 14.5 | 0.00 | 0.00 | 0.00 | 24 | 1010.0 |
| 20260503214016 | 16 | 270 | 6.4 | 11.3 | 0.00 | 0.00 | 0.00 | 25 | 1009.9 |
| 20260503213517 | 16 | 0 | 4.8 | 9.7 | 0.00 | 0.00 | 0.00 | 24 | 1009.9 |
| 20260503213016 | 16 | 270 | 6.4 | 12.9 | 0.00 | 0.00 | 0.00 | 24 | 1009.9 |
| 20260503212516 | 16 | 270 | 4.8 | 11.3 | 0.00 | 0.00 | 0.00 | 24 | 1009.9 |
| 20260503212016 | 16 | 270 | 4.8 | 16.1 | 0.00 | 0.00 | 0.00 | 25 | 1009.9 |
| 20260503211516 | 16 | 270 | 8.0 | 17.7 | 0.00 | 0.00 | 0.00 | 24 | 1010.0 |
| 20260503211016 | 16 | 270 | 6.4 | 12.9 | 0.00 | 0.00 | 0.00 | 25 | 1009.9 |
| 20260503210532 | 16 | 270 | 4.8 | 12.9 | 0.00 | 0.00 | 0.00 | 25 | 1009.9 |
| 20260503210017 | 16 | 270 | 4.8 | 14.5 | 0.00 | 0.00 | 0.00 | 26 | 1009.9 |
| 20260503205516 | 15 | 292 | 6.4 | 16.1 | 0.00 | 0.00 | 0.00 | 25 | 1009.9 |
| 20260503205016 | 15 | 270 | 4.8 | 11.3 | 0.00 | 0.00 | 0.00 | 25 | 1009.9 |
| 20260503204516 | 15 | 270 | 6.4 | 11.3 | 0.00 | 0.00 | 0.00 | 26 | 1010.0 |
| 20260503204016 | 16 | 270 | 6.4 | 12.9 | 0.00 | 0.00 | 0.00 | 26 | 1010.0 |
| 20260503203516 | 15 | 270 | 4.8 | 11.3 | 0.00 | 0.00 | 0.00 | 26 | 1009.9 |
| 20260503203017 | 15 | 270 | 4.8 | 9.7 | 0.00 | 0.00 | 0.00 | 26 | 1010.0 |
| 20260503202516 | 15 | 270 | 6.4 | 14.5 | 0.00 | 0.00 | 0.00 | 26 | 1010.1 |
| 20260503202016 | 15 | 270 | 8.0 | 19.3 | 0.00 | 0.00 | 0.00 | 26 | 1010.1 |
| 20260503201516 | 15 | 270 | 6.4 | 14.5 | 0.00 | 0.00 | 0.00 | 27 | 1009.9 |
| 20260503201016 | 15 | 270 | 4.8 | 12.9 | 0.00 | 0.00 | 0.00 | 27 | 1010.1 |
| 20260503200516 | 15 | 315 | 4.8 | 12.9 | 0.00 | 0.00 | 0.00 | 31 | 1010.2 |
| 20260503200016 | 15 | 292 | 6.4 | 12.9 | 0.00 | 0.00 | 0.00 | 28 | 1010.2 |
| 20260503195516 | 15 | 292 | 4.8 | 9.7 | 0.00 | 0.00 | 0.00 | 27 | 1010.2 |
| 20260503195016 | 15 | 292 | 4.8 | 8.0 | 0.00 | 0.00 | 0.00 | 29 | 1010.2 |
| 20260503194516 | 15 | 270 | 4.8 | 11.3 | 0.00 | 0.00 | 0.00 | 29 | 1010.3 |
| 20260503194016 | 15 | 270 | 8.0 | 14.5 | 0.00 | 0.00 | 0.00 | 31 | 1010.4 |
| 20260503193516 | 15 | 270 | 6.4 | 11.3 | 0.00 | 0.00 | 0.00 | 30 | 1010.3 |
| 20260503193016 | 15 | 270 | 8.0 | 16.1 | 0.00 | 0.00 | 0.00 | 27 | 1010.5 |
| 20260503192516 | 15 | 270 | 6.4 | 16.1 | 0.00 | 0.00 | 0.00 | 27 | 1010.5 |
| 20260503192016 | 14 | 270 | 8.0 | 14.5 | 0.00 | 0.00 | 0.00 | 29 | 1010.5 |
| 20260503191516 | 14 | 0 | 8.0 | 22.5 | 0.00 | 0.00 | 0.00 | 32 | 1010.5 |
| 20260503191016 | 14 | 292 | 4.8 | 11.3 | 0.00 | 0.00 | 0.00 | 28 | 1010.5 |
| 20260503190516 | 14 | 270 | 4.8 | 11.3 | 0.00 | 0.00 | 0.00 | 30 | 1010.6 |
| 20260503190016 | 14 | 292 | 6.4 | 17.7 | 0.00 | 0.00 | 0.00 | 29 | 1010.5 |
| 20260503185516 | 14 | 270 | 6.4 | 16.1 | 0.00 | 0.00 | 0.00 | 30 | 1010.6 |
| 20260503185016 | 14 | 315 | 6.4 | 12.9 | 0.00 | 0.00 | 0.00 | 32 | 1010.8 |
| 20260503184516 | 14 | 0 | 6.4 | 19.3 | 0.00 | 0.00 | 0.00 | 30 | 1010.7 |
| 20260503184016 | 13 | 270 | 6.4 | 19.3 | 0.00 | 0.00 | 0.00 | 29 | 1010.8 |
| 20260503183516 | 13 | 270 | 6.4 | 14.5 | 0.00 | 0.00 | 0.00 | 31 | 1010.8 |
| 20260503183016 | 13 | 292 | 6.4 | 22.5 | 0.00 | 0.00 | 0.00 | 32 | 1010.8 |
| 20260503182516 | 13 | 270 | 6.4 | 14.5 | 0.00 | 0.00 | 0.00 | 30 | 1010.8 |
| 20260503182016 | 13 | 270 | 6.4 | 11.3 | 0.00 | 0.00 | 0.00 | 31 | 1010.8 |
| 20260503181516 | 13 | 270 | 6.4 | 11.3 | 0.00 | 0.00 | 0.00 | 32 | 1010.8 |
| 20260503181016 | 13 | 270 | 4.8 | 12.9 | 0.00 | 0.00 | 0.00 | 31 | 1010.9 |
| 20260503180516 | 13 | 292 | 6.4 | 16.1 | 0.00 | 0.00 | 0.00 | 31 | 1011.0 |
| 20260503180031 | 13 | 315 | 4.8 | 11.3 | 0.00 | 0.00 | 0.00 | 38 | 1010.9 |
| 20260503175516 | 13 | 292 | 6.4 | 14.5 | 0.00 | 0.00 | 0.00 | 34 | 1011.1 |
| 20260503175016 | 13 | 0 | 4.8 | 14.5 | 0.00 | 0.00 | 0.00 | 33 | 1011.1 |
| 20260503174516 | 13 | 292 | 4.8 | 12.9 | 0.00 | 0.00 | 0.00 | 37 | 1011.2 |
| 20260503174016 | 12 | 270 | 6.4 | 14.5 | 0.00 | 0.00 | 0.00 | 36 | 1011.3 |
| 20260503173516 | 12 | 270 | 6.4 | 12.9 | 0.00 | 0.00 | 0.00 | 37 | 1011.3 |
| 20260503173016 | 12 | 270 | 6.4 | 12.9 | 0.00 | 0.00 | 0.00 | 36 | 1011.3 |
| 20260503172516 | 12 | 0 | 6.4 | 17.7 | 0.00 | 0.00 | 0.00 | 37 | 1011.3 |
| 20260503172016 | 12 | 0 | 6.4 | 11.3 | 0.00 | 0.00 | 0.00 | 35 | 1011.3 |
| 20260503171516 | 12 | 315 | 6.4 | 19.3 | 0.00 | 0.00 | 0.00 | 35 | 1011.5 |
| 20260503171016 | 12 | 292 | 4.8 | 9.7 | 0.00 | 0.00 | 0.00 | 38 | 1011.4 |
| 20260503170516 | 12 | 247 | 4.8 | 12.9 | 0.00 | 0.00 | 0.00 | 38 | 1011.3 |
| 20260503150515 | 11 | 315 | 6.4 | 20.9 | 0.00 | 0.00 | 0.00 | 36 | 1011.9 |
| 20260503131015 | 9 | 292 | 4.8 | 11.3 | 0.00 | 0.00 | 0.00 | 50 | 1011.7 |
| 20260503130515 | 9 | 0 | 4.8 | 9.7 | 0.00 | 0.00 | 0.00 | 49 | 1011.8 |
| 20260503110515 | 7 | 315 | 1.6 | 4.8 | 0.00 | 0.00 | 0.00 | 55 | 1011.3 |
| 20260503081516 | 8 | 337 | 3.2 | 6.4 | 0.00 | 0.00 | 0.00 | 52 | 1010.3 |
| 20260503081017 | 8 | 292 | 3.2 | 6.4 | 0.00 | 0.00 | 0.00 | 51 | 1010.3 |
| 20260503080516 | 8 | 337 | 1.6 | 4.8 | 0.00 | 0.00 | 0.00 | 50 | 1010.3 |
| 20260503072516 | 8 | 292 | 1.6 | 6.4 | 0.00 | 0.00 | 0.00 | 52 | 1010.1 |
| 20260503072016 | 8 | 0 | 1.6 | 8.0 | 0.00 | 0.00 | 0.00 | 51 | 1010.1 |
| 20260503071517 | 8 | 0.0 | 3.2 | 0.00 | 0.00 | 0.00 | 53 | 1010.1 | |
| 20260503071016 | 8 | 0.0 | 1.6 | 0.00 | 0.00 | 0.00 | 52 | 1010.1 | |
| 20260503070516 | 8 | 0.0 | 0.0 | 0.00 | 0.00 | 0.00 | 51 | 1010.2 | |
| 20260503055016 | 10 | 0.0 | 1.6 | 0.00 | 0.00 | 0.00 | 46 | 1010.4 | |
| 20260503054516 | 10 | 0 | 1.6 | 6.4 | 0.00 | 0.00 | 0.00 | 45 | 1010.4 |
| 20260503054031 | 10 | 0.0 | 3.2 | 0.00 | 0.00 | 0.00 | 47 | 1010.5 | |
| 20260503053516 | 10 | 0.0 | 0.0 | 0.00 | 0.00 | 0.00 | 46 | 1010.5 | |
| 20260503053016 | 10 | 0.0 | 1.6 | 0.00 | 0.00 | 0.00 | 44 | 1010.5 | |
| 20260503052516 | 10 | 315 | 1.6 | 8.0 | 0.00 | 0.00 | 0.00 | 46 | 1010.7 |
| 20260503052016 | 10 | 0.0 | 4.8 | 0.00 | 0.00 | 0.00 | 45 | 1010.8 | |
| 20260503051516 | 10 | 0 | 1.6 | 9.7 | 0.00 | 0.00 | 0.00 | 44 | 1010.8 |
| 20260503051016 | 10 | 45 | 1.6 | 9.7 | 0.00 | 0.00 | 0.00 | 44 | 1010.8 |
| 20260503050516 | 10 | 0.0 | 4.8 | 0.00 | 0.00 | 0.00 | 43 | 1010.8 | |
| 20260503050016 | 10 | 0.0 | 3.2 | 0.00 | 0.00 | 0.00 | 44 | 1010.8 | |
| 20260503045516 | 10 | 22 | 3.2 | 6.4 | 0.00 | 0.00 | 0.00 | 43 | 1010.8 |
| 20260503045016 | 11 | 315 | 3.2 | 8.0 | 0.00 | 0.00 | 0.00 | 43 | 1010.8 |
| 20260503044516 | 11 | 315 | 1.6 | 4.8 | 0.00 | 0.00 | 0.00 | 44 | 1011.0 |